Weather History for Kingstree, SC

Change the Weather History Date:

Wednesday, December 21, 2011

  Actual Average Record
Temperature  
Mean Temperature 59 °F -  
Max Temperature 68 °F 60 °F 78 °F (2013)
Min Temperature 50 °F 34 °F 26 °F (2010)
Degree Days  
Heating Degree Days 6    
Growing Degree Days 9 (Base 50)    
Moisture  
Dew Point 58 °F    
Average Humidity 93    
Maximum Humidity 100    
Minimum Humidity 78    
Precipitation  
Precipitation 0.00 in - - ()
Sea Level Pressure  
Sea Level Pressure 30.10 in    
Wind  
Wind Speed 3 mph (SSE)    
Max Wind Speed 12 mph    
Max Gust Speed 18 mph    
Visibility 10 miles    
Events Rain    
Averages and records for this station are not official NWS values.
T = Trace of Precipitation, MM = Missing Value Source: NWS Daily Summary

Daily Weather History Graph

Daily Weather History Graph

Search for Another Location

Airport:

Trip Planner

Search our weather history database for the weather conditions in past years. The results will help you decide how hot, cold, wet, or windy it might be!

Date:

Astronomy

Dec. 21, 2011 Rise Set
Actual Time 7:20 AM EST 5:14 PM EST
Civil Twilight 6:52 AM EST 5:42 PM EST
Nautical Twilight 6:21 AM EST 6:13 PM EST
Astronomical Twilight 5:50 AM EST 6:44 PM EST
Moon 3:54 AM EST 2:30 PM EST
Length of Visible Light 10h 50m
Length of Day
9h 54m
Waning Crescent, 12% of the Moon is Illuminated
Dec 21
Waning Crescent
Dec 24
New
Jan 1
First Quarter
Jan 9
Full
Jan 16
Last Quarter

Hourly Weather History & Observations

Time (EST) Temp. Dew Point Humidity Pressure Visibility Wind Dir Wind Speed Gust Speed Precip Events Conditions
12:15 AM 51.8 °F 51.8 °F 100% 30.17 in 10.0 mi Calm Calm - N/A   Overcast
12:35 AM 51.8 °F 51.8 °F 100% 30.17 in 10.0 mi Calm Calm - N/A   Overcast
12:55 AM 51.8 °F 51.8 °F 100% 30.17 in 10.0 mi Calm Calm - N/A   Overcast
1:15 AM 50.0 °F 50.0 °F 100% 30.16 in 10.0 mi Calm Calm - N/A   Overcast
1:35 AM 51.8 °F 51.8 °F 100% 30.16 in 10.0 mi Calm Calm - N/A   Overcast
1:55 AM 51.8 °F 51.8 °F 100% 30.15 in 10.0 mi ESE 3.5 mph - N/A   Overcast
2:15 AM 53.6 °F 53.6 °F 100% 30.15 in 10.0 mi ESE 3.5 mph - N/A   Overcast
2:35 AM 51.8 °F 51.8 °F 100% 30.14 in 10.0 mi ESE 3.5 mph - N/A   Overcast
2:55 AM 51.8 °F 51.8 °F 100% 30.14 in 10.0 mi SE 3.5 mph - N/A   Overcast
3:15 AM 51.8 °F 51.8 °F 100% 30.14 in 10.0 mi Calm Calm - N/A   Overcast
3:35 AM 51.8 °F 51.8 °F 100% 30.14 in 10.0 mi Calm Calm - N/A   Overcast
3:55 AM 51.8 °F 51.8 °F 100% 30.13 in 7.0 mi Calm Calm - N/A   Overcast
4:15 AM 50.0 °F 50.0 °F 100% 30.13 in 10.0 mi Calm Calm - N/A   Overcast
4:35 AM 50.0 °F 50.0 °F 100% 30.12 in 10.0 mi ESE 3.5 mph - N/A   Overcast
4:55 AM 50.0 °F 50.0 °F 100% 30.12 in 7.0 mi Calm Calm - N/A   Overcast
5:15 AM 50.0 °F 50.0 °F 100% 30.12 in 10.0 mi Calm Calm - N/A   Overcast
5:35 AM 50.0 °F 50.0 °F 100% 30.12 in 10.0 mi SE 3.5 mph - N/A   Overcast
5:55 AM 51.8 °F 51.8 °F 100% 30.12 in 7.0 mi Calm Calm - N/A   Overcast
6:55 AM 55.4 °F 55.4 °F 100% 30.11 in 10.0 mi Calm Calm - N/A   Overcast
7:15 AM 57.2 °F 57.2 °F 100% 30.11 in 10.0 mi Calm Calm - N/A   Overcast
7:35 AM 55.4 °F 55.4 °F 100% 30.11 in 7.0 mi Calm Calm - N/A   Overcast
7:55 AM 55.4 °F 55.4 °F 100% 30.12 in 7.0 mi Calm Calm - N/A   Overcast
8:15 AM 59.0 °F 59.0 °F 100% 30.11 in 10.0 mi SE 3.5 mph - N/A   Overcast
8:35 AM 60.8 °F 60.8 °F 100% 30.12 in 10.0 mi SSE 3.5 mph - N/A   Overcast
8:55 AM 62.6 °F 62.6 °F 100% 30.12 in 10.0 mi SSE 3.5 mph - N/A   Overcast
9:15 AM 62.6 °F 62.6 °F 100% 30.13 in 10.0 mi SSE 3.5 mph - N/A Rain Light Rain
9:35 AM 62.6 °F 62.6 °F 100% 30.14 in 10.0 mi South 4.6 mph - N/A   Overcast
9:55 AM 64.4 °F 62.6 °F 94% 30.14 in 10.0 mi South 5.8 mph - N/A   Overcast
10:35 AM 64.4 °F 62.6 °F 94% 30.13 in 10.0 mi South 6.9 mph - N/A   Overcast
10:55 AM 66.2 °F 62.6 °F 88% 30.14 in 10.0 mi South 4.6 mph - N/A   Overcast
11:55 AM 66.2 °F 62.6 °F 88% 30.11 in 10.0 mi South 5.8 mph - N/A   Light Drizzle
12:15 PM 68.0 °F 62.6 °F 83% 30.09 in 10.0 mi South 9.2 mph - N/A   Overcast
12:35 PM 68.0 °F 62.6 °F 83% 30.08 in 10.0 mi South 5.8 mph - N/A   Overcast
1:15 PM 68.0 °F 60.8 °F 78% 30.07 in 10.0 mi South 5.8 mph - N/A   Overcast
1:35 PM 68.0 °F 60.8 °F 78% 30.06 in 10.0 mi South 8.1 mph - N/A Rain Light Rain
1:55 PM 68.0 °F 62.6 °F 83% 30.04 in 10.0 mi South 5.8 mph - N/A Rain Light Rain
2:15 PM 66.2 °F 62.6 °F 88% 30.04 in 10.0 mi South 5.8 mph - N/A   Light Drizzle
2:35 PM 66.2 °F 62.6 °F 88% 30.03 in 10.0 mi South 8.1 mph - N/A   Light Drizzle
2:55 PM 68.0 °F 60.8 °F 78% 30.03 in 10.0 mi South 11.5 mph 17.3 mph N/A   Overcast
3:35 PM 66.2 °F 60.8 °F 83% 30.04 in 10.0 mi South 9.2 mph 18.4 mph N/A   Light Drizzle
4:35 PM 64.4 °F 62.6 °F 94% 30.06 in 10.0 mi South 3.5 mph - N/A   Overcast
4:55 PM 64.4 °F 62.6 °F 94% 30.06 in 10.0 mi Calm Calm - N/A   Overcast
5:15 PM 64.4 °F 62.6 °F 94% 30.06 in 10.0 mi SSW 3.5 mph - N/A   Overcast
5:35 PM 64.4 °F 60.8 °F 88% 30.06 in 10.0 mi Calm Calm - N/A   Overcast
5:55 PM 64.4 °F 60.8 °F 88% 30.06 in 10.0 mi SE 3.5 mph - N/A   Overcast
6:15 PM 64.4 °F 60.8 °F 88% 30.06 in 10.0 mi Calm Calm - N/A   Overcast
6:35 PM 64.4 °F 60.8 °F 88% 30.06 in 10.0 mi SE 3.5 mph - N/A   Overcast
6:55 PM 64.4 °F 60.8 °F 88% 30.06 in 10.0 mi SSE 8.1 mph - N/A   Overcast
7:15 PM 66.2 °F 60.8 °F 83% 30.07 in 10.0 mi South 6.9 mph - N/A   Overcast
7:35 PM 66.2 °F 60.8 °F 83% 30.07 in 10.0 mi SSE 6.9 mph - N/A   Overcast
7:55 PM 64.4 °F 60.8 °F 88% 30.07 in 10.0 mi SSE 9.2 mph - N/A   Overcast
8:15 PM 64.4 °F 60.8 °F 88% 30.07 in 10.0 mi SSE 9.2 mph - N/A   Overcast
8:35 PM 64.4 °F 60.8 °F 88% 30.07 in 10.0 mi South 8.1 mph - N/A   Overcast
8:55 PM 64.4 °F 60.8 °F 88% 30.07 in 10.0 mi South 6.9 mph - N/A   Overcast
9:15 PM 64.4 °F 60.8 °F 88% 30.06 in 10.0 mi South 8.1 mph - N/A   Overcast
9:35 PM 64.4 °F 60.8 °F 88% 30.06 in 10.0 mi South 5.8 mph - N/A   Overcast
9:55 PM 64.4 °F 60.8 °F 88% 30.08 in 10.0 mi South 6.9 mph - N/A   Overcast
10:15 PM 64.4 °F 60.8 °F 88% 30.08 in 10.0 mi South 8.1 mph - N/A   Overcast
10:35 PM 64.4 °F 60.8 °F 88% 30.08 in 10.0 mi SSE 5.8 mph - N/A   Overcast
10:55 PM 64.4 °F 59.0 °F 83% 30.07 in 10.0 mi South 6.9 mph - N/A   Overcast
11:15 PM 64.4 °F 60.8 °F 88% 30.07 in 10.0 mi South 5.8 mph - N/A   Overcast
11:35 PM 64.4 °F 60.8 °F 88% 30.06 in 10.0 mi South 6.9 mph - N/A   Overcast
11:55 PM 64.4 °F 59.0 °F 83% 30.06 in 10.0 mi South 6.9 mph - N/A   Overcast